This is the latest recevied weather packets stored in our database for station/object K5GHS-1. If no packets are shown the sender has not sent any weather packets the latest 10 day(s).
| Time | Temp. | Humidity | Pressure | Rain* | Wind** | Luminosity | Snow |
|---|---|---|---|---|---|---|---|
| 1788077755 | 28.33° C | 55% | 1013.8 hPa | 0 mm | - | 0 W/m² | - |
| 1788077454 | 28.33° C | 55% | 1013.9 hPa | 0 mm | - | 0 W/m² | - |
| 1788077149 | 28.33° C | 54% | 1013.5 hPa | 0 mm | - | 0 W/m² | - |
| 1788076844 | 28.33° C | 54% | 1013.7 hPa | 0 mm | - | 0 W/m² | - |
| 1788076539 | 28.33° C | 53% | 1013.8 hPa | 0 mm | - | 0 W/m² | - |
| 1788076234 | 28.89° C | 53% | 1013.9 hPa | 0 mm | - | 0 W/m² | - |
| 1788075932 | 28.89° C | 54% | 1013.8 hPa | 0 mm | - | 0 W/m² | - |
| 1788075626 | 28.89° C | 54% | 1013.8 hPa | 0 mm | - | 0 W/m² | - |
| 1788075321 | 28.89° C | 53% | 1013.9 hPa | 0 mm | - | 0 W/m² | - |
| 1788075016 | 28.89° C | 53% | 1014 hPa | 0 mm | - | 0 W/m² | - |
| 1788074712 | 28.89° C | 53% | 1013.9 hPa | 0 mm | - | 0 W/m² | - |
| 1788074412 | 28.89° C | 53% | 1014 hPa | 0 mm | - | 0 W/m² | - |
| 1788074108 | 28.89° C | 59% | 1014 hPa | 0 mm | - | 0 W/m² | - |
| 1788073818 | 29.44° C | 53% | 1014 hPa | 0 mm | - | 0 W/m² | - |
| 1788073500 | 29.44° C | 53% | 1013.9 hPa | 0 mm | - | 0 W/m² | - |
| 1788073198 | 29.44° C | 50% | 1013.9 hPa | 0 mm | - | 0 W/m² | - |
| 1788072893 | 29.44° C | 50% | 1013.9 hPa | 0 mm | - | 0 W/m² | - |
| 1788072591 | 29.44° C | 50% | 1013.9 hPa | 0 mm | - | 0 W/m² | - |
| 1788072287 | 30° C | 49% | 1014 hPa | 0 mm | - | 0 W/m² | - |
| 1788071987 | 30° C | 49% | 1014.1 hPa | 0 mm | - | 0 W/m² | - |
| 1788071681 | 30° C | 49% | 1014.1 hPa | 0 mm | - | 0 W/m² | - |
| 1788071380 | 30° C | 49% | 1013.9 hPa | 0 mm | - | 0 W/m² | - |
| 1788071079 | 30° C | 49% | 1014 hPa | 0 mm | - | 0 W/m² | - |
| 1788070774 | 30° C | 49% | 1014 hPa | 0 mm | - | 0 W/m² | - |
| 1788070469 | 30° C | 49% | 1014 hPa | 0 mm | - | 0 W/m² | - |
* Rain latest hour (hover to see other rain measurements)
** Current wind speed in m/s (hover to see current wind gust speed)